Weather in Douz

Tunisia     33°27′42″N   9°01′41″E
temp.,
°C
wind,
m/s
gust,
m/s
humid.,
%
clouds,
%
prec.,
mm/h
press.,
hPa
HPBL,
m
31 july, sat
sat3101:00+32wsw22165 0.0 101211
04:00+32ssw33160 0.0 101111
07:00+32sw45161 0.0 101279
10:00+40wsw5694 0.0 1012713
13:00+44w5575 0.0 10101736
16:00+45w4470 0.0 10083092
19:00+41ssw3480 0.0 100812
22:00+37ssw44110 0.0 100921
1 august, sun
sun101:00+34sw34120 0.0 100917
04:00+31se22150 0.0 100911
07:00+33sse22120 0.0 101016
10:00+40e1190 0.0 1011688
13:00+44wnw2270 0.0 10092110
16:00+45wnw2460 0.0 10074608
19:00+40nnw3380 0.0 100712
22:00+36ese56182 0.0 100948
2 august, mon
mon201:00+34e571674 0.0 100963
04:00+29ene8125282 0.0 1010167
07:00+29ene8115957 0.0 1011244
10:00+39e67196 0.0 1011894
13:00+45ese46735 0.0 10093917
16:00+45e65101 0.0 10084619
19:00+38ene1014243 0.0 1008411
22:00+32ene814370 0.0 1010213
3 august, tue
tue301:00+30e57320 0.0 101077
04:00+28ene56402 0.0 101059
07:00+30ene46380 0.0 1012131
10:00+39ese34170 0.0 1012882
13:00+43e34110 0.0 10102306
16:00+45nne3580 0.0 10094280
19:00+38ene812210 0.0 1009207
22:00+33e58290 0.0 101190
4 august, wed
wed401:00+30e56270 0.0 101157
04:00+29ene44290 0.0 101030
07:00+30ne45310 0.0 101295
10:00+38e44230 0.0 1013692
13:00+43sse23120 0.0 10111998
16:00+44ese1290 0.0 10102957
19:00+35ene811370 0.0 1010199
22:00+32e56460 0.0 101276